Litchfield, MN

8:12 AM CDT on May 30, 2017 (GMT -0500)
Litchfield Municipal

Weather History for KLJF - January, 2013

Change the Weather History Date:

Tuesday, January 29, 2013

  Actual Average Record
Temperature  
Mean Temperature 28 °F -  
Max Temperature 33 °F 22 °F 45 °F (1990)
Min Temperature 24 °F 2 °F -34 °F (1951)
Degree Days  
Heating Degree Days 36    
Moisture  
Dew Point 30 °F    
Average Humidity 94    
Maximum Humidity 100    
Minimum Humidity 86    
Precipitation  
Precipitation 0.00 in - - ()
Sea Level Pressure  
Sea Level Pressure 29.65 in    
Wind  
Wind Speed 7 mph (NNW)    
Max Wind Speed 21 mph    
Max Gust Speed 26 mph    
Visibility 7 miles    
Events      
Averages and records for this station are not official NWS values.
T = Trace of Precipitation, MM = Missing Value Source: NWS Daily Summary

Daily Weather History Graph

Daily Weather History Graph

Search for Another Location

Airport or City:

Trip Planner

Search our weather history database for the weather conditions in past years. The results will help you decide how hot, cold, wet, or windy it might be!

Date:

Astronomy

Jan. 29, 2013 Rise Set
Actual Time 7:41 AM CST 5:21 PM CST
Civil Twilight 7:09 AM CST 5:53 PM CST
Nautical Twilight 6:34 AM CST 6:28 PM CST
Astronomical Twilight 5:59 AM CST 7:03 PM CST
Moon 8:29 PM CST (1/29) 8:29 AM CST (1/29)
Length of Visible Light 10h 43m
Length of Day
9h 40m
Waning Gibbous, 93% of the Moon is Illuminated
Jan 29
Waning Gibbous
Feb 3
Last Quarter
Feb 10
New
Feb 17
First Quarter
Feb 25
Full

Hourly Weather History & Observations

Time (CST) Temp. Windchill Dew Point Humidity Pressure Visibility Wind Dir Wind Speed Gust Speed Precip Events Conditions
12:13 AM 33.8 °F 30.8 °F 33.8 °F 100% 29.62 in 2.0 mi East 3.5 mph - N/A   Overcast
12:32 AM 33.8 °F 30.8 °F 33.8 °F 100% 29.61 in 2.0 mi East 3.5 mph - N/A   Overcast
12:53 AM 33.8 °F 28.6 °F 33.8 °F 100% 29.58 in 2.0 mi East 5.8 mph - N/A   Overcast
1:13 AM 32.0 °F 28.7 °F 32.0 °F 100% 29.59 in 3.0 mi East 3.5 mph - N/A   Overcast
1:32 AM 32.0 °F - 32.0 °F 100% 29.58 in 4.0 mi Calm Calm - N/A   Overcast
1:53 AM 32.0 °F 28.7 °F 32.0 °F 100% 29.57 in 4.0 mi North 3.5 mph - N/A   Overcast
2:13 AM 32.0 °F 27.5 °F 32.0 °F 100% 29.59 in 3.0 mi NNW 4.6 mph - N/A   Overcast
2:33 AM 32.0 °F 28.7 °F 32.0 °F 100% 29.59 in 3.0 mi NNW 3.5 mph - N/A   Overcast
2:53 AM 33.8 °F - 33.8 °F 100% 29.58 in 2.0 mi Calm Calm - N/A   Overcast
3:13 AM 32.0 °F - 32.0 °F 100% 29.56 in 2.0 mi Calm Calm - N/A   Unknown
3:33 AM 33.8 °F - 33.8 °F 100% 29.58 in 1.8 mi Calm Calm - N/A   Overcast
4:13 AM 33.8 °F - 33.8 °F 100% 29.57 in 2.5 mi Calm Calm - N/A   Overcast
4:33 AM 33.8 °F - 33.8 °F 100% 29.58 in 4.0 mi Calm Calm - N/A   Overcast
4:53 AM 33.8 °F 30.8 °F 33.8 °F 100% 29.57 in 5.0 mi WNW 3.5 mph - N/A   Overcast
5:12 AM 33.8 °F 30.8 °F 33.8 °F 100% 29.58 in 5.0 mi WNW 3.5 mph - N/A   Overcast
5:33 AM 33.8 °F 29.6 °F 33.8 °F 100% 29.54 in 4.0 mi NW 4.6 mph - N/A   Overcast
5:53 AM 33.8 °F 29.6 °F 33.8 °F 100% 29.53 in 4.0 mi NW 4.6 mph - N/A   Overcast
6:12 AM 33.8 °F 28.6 °F 33.8 °F 100% 29.54 in 5.0 mi WNW 5.8 mph - N/A   Overcast
6:33 AM 33.8 °F 29.6 °F 33.8 °F 100% 29.55 in 5.0 mi WNW 4.6 mph - N/A   Overcast
6:53 AM 33.8 °F 27.7 °F 33.8 °F 100% 29.56 in 7.0 mi WNW 6.9 mph - N/A   Overcast
7:12 AM 33.8 °F 27.7 °F 33.8 °F 100% 29.58 in 7.0 mi NW 6.9 mph - N/A   Overcast
7:33 AM 33.8 °F 28.6 °F 33.8 °F 100% 29.61 in 10.0 mi WNW 5.8 mph - N/A   Overcast
7:53 AM 33.8 °F 27.0 °F 33.8 °F 100% 29.61 in 10.0 mi NW 8.1 mph - N/A   Overcast
8:12 AM 33.8 °F 27.0 °F 33.8 °F 100% 29.62 in 10.0 mi NW 8.1 mph 16.1 mph N/A   Overcast
8:33 AM 33.8 °F 25.3 °F 33.8 °F 100% 29.61 in 10.0 mi NW 11.5 mph - N/A   Overcast
8:53 AM 33.8 °F 25.8 °F 33.8 °F 100% 29.62 in 10.0 mi NW 10.4 mph - N/A   Overcast
9:12 AM 33.8 °F 27.0 °F 33.8 °F 100% 29.61 in 10.0 mi NNW 8.1 mph - N/A   Overcast
9:33 AM 33.8 °F 27.0 °F 33.8 °F 100% 29.61 in 10.0 mi North 8.1 mph - N/A   Overcast
9:53 AM 33.8 °F 26.4 °F 32.0 °F 93% 29.62 in 10.0 mi NNW 9.2 mph - N/A   Mostly Cloudy
10:12 AM 33.8 °F 27.0 °F 32.0 °F 93% 29.62 in 10.0 mi NW 8.1 mph - N/A   Overcast
10:33 AM 32.0 °F 24.2 °F 30.2 °F 93% 29.65 in 10.0 mi NW 9.2 mph - N/A   Overcast
10:53 AM 30.2 °F 22.6 °F 30.2 °F 100% 29.68 in 7.0 mi NW 8.1 mph - N/A   Overcast
11:12 AM 32.0 °F 26.4 °F 30.2 °F 93% 29.69 in 7.0 mi NW 5.8 mph - N/A   Overcast
11:33 AM 32.0 °F 23.6 °F 30.2 °F 93% 29.67 in 7.0 mi NNW 10.4 mph - N/A   Mostly Cloudy
11:53 AM 32.0 °F 26.4 °F 30.2 °F 93% 29.67 in 7.0 mi NW 5.8 mph - N/A   Scattered Clouds
12:12 PM 33.8 °F 27.7 °F 30.2 °F 87% 29.67 in 7.0 mi NW 6.9 mph - N/A   Scattered Clouds
12:33 PM 33.8 °F 25.8 °F 30.2 °F 87% 29.65 in 5.0 mi NW 10.4 mph - N/A   Scattered Clouds
12:52 PM 33.8 °F 27.0 °F 30.2 °F 87% 29.65 in 7.0 mi NW 8.1 mph - N/A   Scattered Clouds
1:13 PM 33.8 °F 25.3 °F 30.2 °F 87% 29.66 in 7.0 mi NW 11.5 mph - N/A   Scattered Clouds
1:33 PM 33.8 °F 27.0 °F 30.2 °F 87% 29.66 in 7.0 mi NNW 8.1 mph - N/A   Scattered Clouds
1:53 PM 33.8 °F 25.8 °F 30.2 °F 87% 29.64 in 7.0 mi NNW 10.4 mph - N/A   Mostly Cloudy
2:13 PM 33.8 °F 25.8 °F 30.2 °F 87% 29.65 in 7.0 mi NW 10.4 mph - N/A   Mostly Cloudy
2:33 PM 33.8 °F 25.3 °F 30.2 °F 87% 29.66 in 7.0 mi NNW 11.5 mph 16.1 mph N/A   Mostly Cloudy
2:53 PM 32.0 °F 22.5 °F 30.2 °F 93% 29.65 in 7.0 mi NW 12.7 mph - N/A   Mostly Cloudy
3:12 PM 32.0 °F 23.6 °F 28.4 °F 87% 29.67 in 7.0 mi NW 10.4 mph - N/A   Scattered Clouds
3:53 PM 30.2 °F 19.8 °F 28.4 °F 93% 29.69 in 7.0 mi NW 13.8 mph - N/A   Scattered Clouds
4:12 PM 30.2 °F 19.8 °F 28.4 °F 93% 29.69 in 7.0 mi NNW 13.8 mph - N/A   Mostly Cloudy
4:33 PM 30.2 °F 18.9 °F 26.6 °F 86% 29.70 in 10.0 mi NNW 16.1 mph 21.9 mph N/A   Overcast
4:53 PM 28.4 °F 17.5 °F 26.6 °F 93% 29.69 in 10.0 mi NNW 13.8 mph - N/A   Overcast
5:13 PM 28.4 °F 15.8 °F 26.6 °F 93% 29.67 in 10.0 mi North 18.4 mph 25.3 mph N/A   Overcast
5:33 PM 28.4 °F 15.8 °F 26.6 °F 93% 29.70 in 10.0 mi North 18.4 mph 23.0 mph N/A   Overcast
5:53 PM 28.4 °F 17.0 °F 26.6 °F 93% 29.71 in 10.0 mi NNW 15.0 mph 19.6 mph N/A   Overcast
6:13 PM 28.4 °F 18.5 °F 26.6 °F 93% 29.71 in 10.0 mi NNW 11.5 mph - N/A   Overcast
6:33 PM 28.4 °F 17.0 °F 26.6 °F 93% 29.72 in 10.0 mi North 15.0 mph 21.9 mph N/A   Overcast
6:53 PM 28.4 °F 16.2 °F 26.6 °F 93% 29.73 in 10.0 mi NNW 17.3 mph - N/A   Overcast
7:13 PM 28.4 °F 18.0 °F 26.6 °F 93% 29.74 in 10.0 mi North 12.7 mph - N/A   Overcast
7:33 PM 28.4 °F 17.5 °F 26.6 °F 93% 29.73 in 10.0 mi NNW 13.8 mph - N/A   Overcast
7:53 PM 28.4 °F 18.0 °F 26.6 °F 93% 29.75 in 10.0 mi NNW 12.7 mph 18.4 mph N/A   Overcast
8:13 PM 28.4 °F 16.6 °F 26.6 °F 93% 29.74 in 10.0 mi NNW 16.1 mph 20.7 mph N/A   Overcast
8:33 PM 28.4 °F 16.2 °F 24.8 °F 86% 29.75 in 10.0 mi North 17.3 mph 21.9 mph N/A   Overcast
8:52 PM 28.4 °F 18.5 °F 26.6 °F 93% 29.76 in 10.0 mi North 11.5 mph - N/A   Overcast
9:13 PM 28.4 °F 16.2 °F 24.8 °F 86% 29.74 in 10.0 mi NNW 17.3 mph - N/A   Overcast
9:32 PM 28.4 °F 15.8 °F 24.8 °F 86% 29.74 in 10.0 mi NNW 18.4 mph 23.0 mph N/A   Overcast
9:53 PM 26.6 °F 14.7 °F 24.8 °F 93% 29.76 in 10.0 mi NNW 15.0 mph - N/A   Overcast
10:13 PM 26.6 °F 12.7 °F 24.8 °F 93% 29.77 in 10.0 mi NNW 20.7 mph - N/A   Overcast
10:32 PM 26.6 °F 13.8 °F 24.8 °F 93% 29.78 in 10.0 mi NNW 17.3 mph 21.9 mph N/A   Overcast
10:53 PM 24.8 °F 11.1 °F 23.0 °F 93% 29.76 in 10.0 mi NNW 18.4 mph 25.3 mph N/A   Overcast
11:13 PM 24.8 °F 11.1 °F 21.2 °F 86% 29.76 in 10.0 mi NNW 18.4 mph 26.5 mph N/A   Overcast
11:32 PM 24.8 °F 11.5 °F 21.2 °F 86% 29.75 in 10.0 mi North 17.3 mph 26.5 mph N/A   Overcast
11:53 PM 24.8 °F 12.4 °F 21.2 °F 86% 29.76 in 10.0 mi North 15.0 mph 25.3 mph N/A   Overcast